Location: Bacea
(45.9500°N, 22.6667°E)
Time: 03:42:08
(UTC+00:00)

Cosmos 2263 Rocket - Pass Details

Date: 30 May 2022
Orbit: 825 x 847 km, 71.0° (Epoch: 04 July)

Event Time Altitude Azimuth Distance (km) Brightness Sun altitude
Rises 18:48:21 0° 334° (NNW) 3,381 6.8 -6.1°
Reaches altitude 10° 18:50:48 10° 336° (NNW) 2,441 5.8 -6.4°
Maximum altitude 18:56:24 78° 63° (ENE) 848 2.2 -7.1°
Drops below altitude 10° 19:01:57 10° 150° (SSE) 2,419 4.0 -7.8°
Enters shadow 19:02:21 - 150° (SSE) 2,569 4.1 -7.9°
